Hourly Data Report for May 23, 2022

KUGAARUK CLIMATE
NUNAVUT
Current Station Operator: ECCC - MSC

68°32'15.060" N
89°47'47.020" W
15.80 m
2303094
71407
NBB

Download Data

Hourly Data (May 2022)
Hourly Data Report for May 23, 2022
TIME
LST
Temp Definition
°C
Dew Point Definition
°C
Rel Hum Definition
%
Precip. Amount Definition
mm

Wind Dir Definition
10's deg

Wind Spd Definition
km/h
Visibility Definition
km
Stn Press Definition
kPa
Hmdx Definition


Wind Chill Definition


Weather Definition


00:00 -14.7 -18.3 74 0.0 26 17   100.73   -23 LegendNANA
01:00 -13.2 -17.4 71 0.0 30 20   100.71   -22 LegendNANA
02:00 -12.8 -15.8 79 0.0 26 22   100.64   -22 LegendNANA
03:00 -13.0 -16.7 74 0.0 29 25   100.68   -23 LegendNANA
04:00 -12.5 -15.9 75 0.0 27 21   100.64   -21 LegendNANA
05:00 -11.1 -14.1 79 0.0 26 30   100.56   -21 LegendNANA
06:00 -10.2 -13.4 78 0.0 28 33   100.52   -20 LegendNANA
07:00 -9.9 -13.0 78 0.0 28 36   100.49   -20 LegendNANA
08:00 -9.4 -12.9 76 0.0 27 35   100.44   -19 LegendNANA
09:00 -9.3 -13.1 73 0.0 28 38   100.42   -20 LegendNANA
10:00 -8.7 -12.7 73 0.0 27 31   100.42   -18 LegendNANA
11:00 -8.3 -12.6 71 0.0 28 38   100.37   -18 LegendNANA
12:00 -8.0 -12.4 71 0.0 28 36   100.37   -18 LegendNANA
13:00 -7.7 -12.0 71 0.0 28 37   100.37   -17 LegendNANA
14:00 -7.8 -11.5 75 0.0 29 33   100.40   -17 LegendNANA
15:00 -7.8 -11.7 74 0.0 28 35   100.40   -17 LegendNANA
16:00 -7.7 -11.7 73 0.0 29 31   100.39   -17 LegendNANA
17:00 -7.8 -12.1 71 0.0 30 30   100.40   -17 LegendNANA
18:00 -8.2 -11.9 75 0.0 29 30   100.42   -17 LegendNANA
19:00 -8.3 -11.6 77 0.0 28 21   100.42   -16 LegendNANA
20:00 -8.7 -11.3 81 0.0 28 27   100.43   -17 LegendNANA
21:00 -9.0 -11.8 80 0.0 28 23   100.42   -17 LegendNANA
22:00 -9.1 -12.0 79 0.0 27 24   100.39   -17 LegendNANA
23:00 -9.1 -12.2 78 0.0 26 23   100.37   -17 LegendNANA

Notes on Data Quality.

Legend

  • E = Estimated
  • M = Missing
  • NA = Not Available*
  • [empty] = Indicates an unobserved value
Date modified: